When you browse on this site, cookies collect data to enhance your experience and personalize the content and advertising you see.
Visit our Privacy Policy to learn more. By continuing to use the site, you agree to this use of cookies and data.
  • In Romania
  • List of Countries
  • For 7 days
  • Water Temperature
  • Weather Map
  • Weather Widgets
  • user-avatar
    Login

    Hourly Weather Mauritius

    Today, 31 May, Sunday

    Time Temperature Precipitation Wind Pressure Humidity
    00:00 +20°C° 0 mm 3 mps 726 mmHg 88%
    01:00 +20°C° 0 mm 3 mps 726 mmHg 89%
    02:00 +20°C° 0 mm 3 mps 726 mmHg 90%
    03:00 +20°C° 0 mm 3 mps 726 mmHg 91%
    04:00 +20°C° 0 mm 3 mps 725 mmHg 91%
    05:00 +20°C° 0 mm 3 mps 726 mmHg 91%
    06:00 +20°C° 0 mm 3 mps 726 mmHg 91%
    07:00 +20°C° 0 mm 4 mps 726 mmHg 91%
    08:00 +21°C° 0 mm 4 mps 726 mmHg 84%
    09:00 +23°C° 0 mm 4 mps 727 mmHg 78%
    10:00 +25°C° 0 mm 4 mps 727 mmHg 71%
    11:00 +25°C° 0 mm 3 mps 726 mmHg 67%
    12:00 +26°C° 0 mm 3 mps 726 mmHg 62%
    13:00 +26°C° 0 mm 3 mps 726 mmHg 58%
    14:00 +26°C° 0 mm 3 mps 726 mmHg 60%
    15:00 +25°C° 0 mm 3 mps 726 mmHg 62%
    16:00 +25°C° 0 mm 3 mps 725 mmHg 64%
    17:00 +24°C° 0 mm 3 mps 726 mmHg 70%
    18:00 +22°C° 0 mm 4 mps 726 mmHg 76%
    19:00 +21°C° 0 mm 4 mps 727 mmHg 82%
    20:00 +21°C° 0 mm 4 mps 727 mmHg 83%
    21:00 +21°C° 0 mm 4 mps 727 mmHg 84%
    22:00 +21°C° 0 mm 4 mps 727 mmHg 85%
    23:00 +20°C° 0 mm 4 mps 727 mmHg 85%

    Tomorrow, 1 June, Monday

    Time Temperature Precipitation Wind Pressure Humidity
    00:00 +20°C° 0 mm 4 mps 726 mmHg 86%
    01:00 +20°C° 0 mm 4 mps 726 mmHg 87%
    02:00 +20°C° 0 mm 4 mps 726 mmHg 86%
    03:00 +20°C° 0 mm 4 mps 726 mmHg 86%
    04:00 +20°C° 0 mm 4 mps 725 mmHg 86%
    05:00 +20°C° 0 mm 5 mps 726 mmHg 87%
    06:00 +20°C° 0 mm 5 mps 726 mmHg 87%
    07:00 +20°C° 0 mm 5 mps 727 mmHg 87%
    08:00 +21°C° 0 mm 5 mps 727 mmHg 82%
    09:00 +22°C° 0 mm 6 mps 727 mmHg 76%
    10:00 +23°C° 0 mm 6 mps 727 mmHg 70%
    11:00 +23°C° 0 mm 6 mps 727 mmHg 68%
    12:00 +24°C° 0 mm 6 mps 727 mmHg 66%
    13:00 +24°C° 0 mm 6 mps 726 mmHg 64%
    14:00 +24°C° 0 mm 6 mps 726 mmHg 68%
    15:00 +23°C° 0 mm 6 mps 726 mmHg 72%
    16:00 +23°C° 0 mm 6 mps 726 mmHg 75%
    17:00 +22°C° 0.1 mm 6 mps 726 mmHg 79%
    18:00 +22°C° 0.1 mm 6 mps 726 mmHg 82%
    19:00 +21°C° 0.1 mm 5 mps 727 mmHg 85%
    20:00 +21°C° 0.1 mm 5 mps 727 mmHg 86%
    21:00 +21°C° 0.1 mm 5 mps 727 mmHg 87%
    22:00 +21°C° 0.1 mm 5 mps 727 mmHg 87%
    23:00 +21°C° 0.1 mm 5 mps 727 mmHg 88%

    Day after tomorrow, 2 June, Tuesday

    Time Temperature Precipitation Wind Pressure Humidity
    00:00 +21°C° 0.1 mm 5 mps 727 mmHg 88%
    01:00 +21°C° 0.1 mm 5 mps 727 mmHg 88%
    02:00 +20°C° 0.1 mm 5 mps 726 mmHg 88%
    03:00 +20°C° 0.1 mm 5 mps 726 mmHg 89%
    04:00 +20°C° 0.1 mm 5 mps 726 mmHg 89%
    05:00 +20°C° 0.2 mm 5 mps 726 mmHg 89%
    06:00 +20°C° 0.2 mm 5 mps 726 mmHg 89%
    07:00 +20°C° 0.2 mm 5 mps 727 mmHg 88%
    08:00 +21°C° 0.3 mm 5 mps 727 mmHg 85%
    09:00 +22°C° 0.3 mm 5 mps 727 mmHg 81%
    10:00 +22°C° 0.3 mm 5 mps 727 mmHg 77%
    11:00 +23°C° 0.1 mm 5 mps 727 mmHg 75%
    12:00 +23°C° 0.1 mm 5 mps 727 mmHg 73%
    13:00 +23°C° 0.1 mm 6 mps 726 mmHg 71%
    14:00 +23°C° 0 mm 5 mps 726 mmHg 72%
    15:00 +23°C° 0 mm 5 mps 726 mmHg 73%
    16:00 +22°C° 0 mm 5 mps 726 mmHg 74%
    17:00 +22°C° 0 mm 5 mps 726 mmHg 77%
    18:00 +21°C° 0 mm 5 mps 726 mmHg 81%
    19:00 +21°C° 0 mm 5 mps 727 mmHg 85%
    20:00 +21°C° 0 mm 5 mps 727 mmHg 85%
    21:00 +20°C° 0 mm 5 mps 727 mmHg 85%
    22:00 +20°C° 0 mm 4 mps 727 mmHg 85%
    23:00 +20°C° 0 mm 4 mps 727 mmHg 85%

    3 June, Wednesday

    Time Temperature Precipitation Wind Pressure Humidity
    00:00 +20°C° 0 mm 4 mps 727 mmHg 86%
    01:00 +20°C° 0 mm 4 mps 727 mmHg 87%
    02:00 +20°C° 0.1 mm 5 mps 726 mmHg 87%
    03:00 +20°C° 0.1 mm 5 mps 726 mmHg 88%
    04:00 +20°C° 0.1 mm 5 mps 726 mmHg 89%
    05:00 +20°C° 0.3 mm 6 mps 726 mmHg 88%
    06:00 +20°C° 0.3 mm 6 mps 726 mmHg 87%
    07:00 +20°C° 0.3 mm 7 mps 727 mmHg 86%
    08:00 +21°C° 0.1 mm 7 mps 727 mmHg 83%
    09:00 +21°C° 0.1 mm 7 mps 727 mmHg 80%
    10:00 +22°C° 0.1 mm 7 mps 727 mmHg 77%
    11:00 +22°C° 0 mm 7 mps 727 mmHg 76%
    12:00 +22°C° 0 mm 7 mps 727 mmHg 75%
    13:00 +22°C° 0 mm 7 mps 727 mmHg 73%
    14:00 +22°C° 0 mm 7 mps 727 mmHg 73%
    15:00 +22°C° 0 mm 7 mps 726 mmHg 73%
    16:00 +22°C° 0 mm 7 mps 726 mmHg 72%
    17:00 +21°C° 0 mm 7 mps 727 mmHg 75%
    18:00 +21°C° 0 mm 8 mps 727 mmHg 78%
    19:00 +20°C° 0 mm 8 mps 727 mmHg 81%
    20:00 +20°C° 0.1 mm 8 mps 727 mmHg 81%
    21:00 +20°C° 0.1 mm 8 mps 727 mmHg 82%
    22:00 +20°C° 0.1 mm 8 mps 727 mmHg 82%
    23:00 +18°C° 0 mm 7 mps 727 mmHg 81%

    4 June, Thursday

    Time Temperature Precipitation Wind Pressure Humidity
    00:00 +18°C° 0 mm 7 mps 727 mmHg 81%
    01:00 +18°C° 0 mm 7 mps 727 mmHg 81%
    02:00 +19°C° 0 mm 6 mps 727 mmHg 81%
    03:00 +19°C° 0 mm 6 mps 727 mmHg 80%
    04:00 +19°C° 0 mm 6 mps 727 mmHg 80%
    05:00 +20°C° 0 mm 6 mps 727 mmHg 80%
    06:00 +20°C° 0 mm 6 mps 727 mmHg 81%
    07:00 +20°C° 0 mm 6 mps 727 mmHg 81%
    08:00 +20°C° 0.1 mm 7 mps 728 mmHg 79%
    09:00 +21°C° 0.1 mm 7 mps 728 mmHg 76%
    10:00 +22°C° 0.1 mm 7 mps 728 mmHg 73%
    11:00 +22°C° 0.1 mm 7 mps 728 mmHg 73%
    12:00 +23°C° 0.1 mm 7 mps 727 mmHg 72%
    13:00 +23°C° 0.1 mm 7 mps 727 mmHg 72%
    14:00 +23°C° 0.2 mm 7 mps 727 mmHg 74%
    15:00 +22°C° 0.2 mm 7 mps 727 mmHg 76%
    16:00 +22°C° 0.2 mm 7 mps 726 mmHg 78%
    17:00 +21°C° 0.1 mm 7 mps 727 mmHg 80%
    18:00 +21°C° 0.1 mm 7 mps 727 mmHg 82%
    19:00 +20°C° 0.1 mm 7 mps 727 mmHg 84%
    20:00 +20°C° 0.1 mm 7 mps 727 mmHg 84%
    21:00 +20°C° 0.1 mm 7 mps 727 mmHg 84%
    22:00 +20°C° 0.1 mm 6 mps 727 mmHg 84%
    23:00 +20°C° 0.1 mm 6 mps 727 mmHg 85%

    5 June, Friday

    Time Temperature Precipitation Wind Pressure Humidity
    00:00 +20°C° 0.1 mm 6 mps 727 mmHg 86%
    01:00 +20°C° 0.1 mm 6 mps 727 mmHg 87%
    02:00 +20°C° 0.1 mm 6 mps 727 mmHg 87%
    03:00 +20°C° 0.1 mm 6 mps 726 mmHg 87%
    04:00 +20°C° 0.1 mm 6 mps 726 mmHg 88%
    05:00 +20°C° 0.1 mm 6 mps 727 mmHg 88%
    06:00 +20°C° 0.1 mm 6 mps 727 mmHg 88%
    07:00 +20°C° 0.1 mm 6 mps 727 mmHg 88%
    08:00 +20°C° 0.2 mm 6 mps 727 mmHg 85%
    09:00 +21°C° 0.2 mm 6 mps 728 mmHg 82%
    10:00 +22°C° 0.2 mm 6 mps 728 mmHg 79%
    11:00 +22°C° 0.2 mm 6 mps 727 mmHg 78%
    12:00 +22°C° 0.2 mm 6 mps 727 mmHg 77%
    13:00 +22°C° 0.2 mm 6 mps 727 mmHg 77%
    14:00 +22°C° 0.2 mm 6 mps 726 mmHg 78%
    15:00 +22°C° 0.2 mm 5 mps 726 mmHg 78%
    16:00 +21°C° 0.2 mm 5 mps 726 mmHg 79%
    17:00 +21°C° 0.2 mm 5 mps 726 mmHg 81%
    18:00 +20°C° 0.2 mm 5 mps 726 mmHg 84%
    19:00 +20°C° 0.2 mm 5 mps 727 mmHg 86%
    20:00 +20°C° 0.1 mm 5 mps 727 mmHg 87%
    21:00 +20°C° 0.1 mm 5 mps 727 mmHg 87%
    22:00 +20°C° 0.1 mm 4 mps 727 mmHg 88%
    23:00 +19°C° 0.1 mm 4 mps 727 mmHg 88%
    Show more